Location: Aciu?a
(46.2833°N, 22.4500°E)
Time: 07:55:51
(UTC+00:00)

Cosmos 1455 - Pass Details

Date: 01 June 2022
Orbit: 492 x 514 km, 82.5° (Epoch: 02 July)

Event Time Altitude Azimuth Distance (km) Brightness Sun altitude
Rises 22:36:33 0° 5° (N) 2,585 7.3 -21.5°
Reaches altitude 10° 22:39:09 10° 24° (NNE) 1,698 5.8 -21.5°
Maximum altitude 22:41:51 19° 70° (ENE) 1,239 4.3 -21.5°
Enters shadow 22:43:06 16° 97° (E) 1,350 4.3 -21.5°
